Location: Ottawa
(45.4170°N, 75.7000°W)
Time: 10:27:50
(UTC-04:00)

Amateur Radio Satellites - All Passes

Search period start: 02 October 2014 09:57
Search period end: 03 October 2014 09:57
Location: Ottawa, 45.4170°N, 75.7000°W

Satellite Date Start Highest point End Downlink Frequencies (MHz)
Time Altitude Azimuth
FUNcube-1 02 Oct 10:05:22 10:06:27 11° 86° (E) 10:07:32 145.950 - 145.970 MHz USB
UKube-1 02 Oct 10:06:12 10:10:03 30° 96° (E) 10:13:53 145.840 MHz, 145.915 MHz
Sapphire 02 Oct 10:13:45 10:19:10 77° 303° (WNW) 10:24:37 437.095 MHz 1200 baud AX-25 AFSK
HO-68 02 Oct 10:32:52 10:40:06 86° 288° (WNW) 10:47:18 435.675 MHz FM
PCSat 02 Oct 10:39:33 10:44:46 48° 309° (NW) 10:50:02 145.825 MHz
ZACube-1 02 Oct 10:48:27 10:52:30 30° 95° (E) 10:56:26 437.345 MHz
Oscar 11 02 Oct 11:11:15 11:15:34 69° 286° (WNW) 11:19:51 145.825 FM, Beacon 2401.500 USB
RS-15 02 Oct 11:37:10 11:48:17 83° 238° (WSW) 11:59:53 29.354 - 29.394 USB, Beacon 29.352 USB
FUNcube-1 02 Oct 11:38:53 11:43:29 83° 284° (WNW) 11:47:56 145.950 - 145.970 MHz USB
UKube-1 02 Oct 11:42:25 11:46:11 29° 294° (WNW) 11:49:57 145.840 MHz, 145.915 MHz
Sapphire 02 Oct 11:59:51 12:03:31 18° 325° (NW) 12:07:11 437.095 MHz 1200 baud AX-25 AFSK
Oscar 16 02 Oct 12:08:59 12:11:57 16° 57° (ENE) 12:14:55 437.025 USB, Beacon 2401.1428
HO-68 02 Oct 12:21:54 12:26:51 21° 308° (NW) 12:31:49 435.675 MHz FM
ZACube-1 02 Oct 12:24:52 12:28:51 30° 293° (WNW) 12:32:44 437.345 MHz
PCSat 02 Oct 12:27:06 12:29:35 13° 332° (NNW) 12:32:03 145.825 MHz
JAS-1B 02 Oct 12:46:05 12:51:46 27° 62° (ENE) 12:56:50 435.800 - 435.900 CW/SSB
Oscar 19 02 Oct 13:04:29 13:09:21 42° 68° (ENE) 13:14:13 437.125 CW, 437.150 USB
FUNcube-1 02 Oct 13:17:54 13:19:04 11° 303° (WNW) 13:20:14 145.950 - 145.970 MHz USB
ITAMSAT 1 02 Oct 13:20:08 13:24:25 27° 63° (ENE) 13:28:44 435.822 SSB
Uribyol 2 02 Oct 13:20:30 13:24:54 29° 64° (ENE) 13:29:19 436.500 FM
TMSAT-1 02 Oct 13:22:51 13:24:39 12° 54° (NE) 13:26:28 436.925 FM
MaSat-1 02 Oct 13:29:37 13:30:09 10° 40° (NE) 13:30:40 437.345 MHz
AO-Echo 02 Oct 13:44:12 13:48:40 46° 70° (ENE) 13:53:13 ?
Oscar 16 02 Oct 13:45:25 13:50:37 84° 256° (WSW) 13:55:51 437.025 USB, Beacon 2401.1428
RS-15 02 Oct 13:51:12 13:59:00 23° 260° (W) 14:07:02 29.354 - 29.394 USB, Beacon 29.352 USB
AO-27 02 Oct 13:58:00 14:03:04 57° 71° (ENE) 14:08:10 436.795 MHz FM
Saudisat 1A 02 Oct 14:10:33 14:14:52 60° 122° (ESE) 14:19:13 436.775 MHz
Gurwin Techsat 1B 02 Oct 14:30:48 14:35:58 55° 71° (ENE) 14:41:09 435.225 FM
JAS-1B 02 Oct 14:34:46 14:42:09 61° 258° (WSW) 14:48:25 435.800 - 435.900 CW/SSB
Oscar 19 02 Oct 14:44:27 14:48:49 27° 266° (W) 14:53:13 437.125 CW, 437.150 USB
AO-7 02 Oct 14:50:23 14:57:24 32° 54° (NE) 15:04:25 29.400 - 29.500 MHz
TMSAT-1 02 Oct 14:58:23 15:03:38 72° 73° (ENE) 15:08:56 436.925 FM
ITAMSAT 1 02 Oct 14:58:46 15:03:41 44° 261° (W) 15:08:40 435.822 SSB
Uribyol 2 02 Oct 14:59:19 15:04:12 41° 262° (W) 15:09:08 436.500 FM
MaSat-1 02 Oct 15:03:50 15:07:16 78° 244° (WSW) 15:10:12 437.345 MHz
Uosat F 02 Oct 15:08:27 15:11:41 18° 59° (ENE) 15:14:56 435.120 FM
AO-Echo 02 Oct 15:24:12 15:27:43 21° 268° (W) 15:31:16 ?
Oscar 16 02 Oct 15:29:17 15:30:45 11° 274° (W) 15:32:13 437.025 USB, Beacon 2401.1428
AO-27 02 Oct 15:39:10 15:42:57 20° 268° (W) 15:46:45 436.795 MHz FM
Saudisat 1A 02 Oct 15:51:17 15:54:48 23° 321° (NW) 15:58:19 436.775 MHz
PCSat 02 Oct 16:00:12 16:02:05 12° 26° (NNE) 16:03:57 145.825 MHz
Gurwin Techsat 1B 02 Oct 16:12:18 16:16:17 21° 268° (W) 16:20:17 435.225 FM
KITSAT 1 02 Oct 16:25:18 16:32:25 36° 109° (ESE) 16:39:33 435.175 FM
Hamsat 02 Oct 16:36:01 16:37:41 12° 60° (ENE) 16:39:21 145.90 MHz
TMSAT-1 02 Oct 16:40:51 16:44:06 16° 271° (W) 16:47:22 436.925 FM
AO-7 02 Oct 16:41:22 16:49:37 69° 255° (WSW) 16:57:55 29.400 - 29.500 MHz
Uosat F 02 Oct 16:44:58 16:49:56 70° 257° (WSW) 16:54:58 435.120 FM
OPAL 02 Oct 16:57:37 17:00:45 16° 92° (E) 17:03:50 ?
Oscar 10/S400 02 Oct 17:05:44 17:23:12 43° 157° (SSE) 18:06:22 145.825 - 145.975 CW/USB, Beacon 145.810 USB
JAS-2 02 Oct 17:13:05 17:17:55 40° 66° (ENE) 17:23:05 435.800 - 435.900 CW/SSB, 435.910 FM
Sapphire 02 Oct 17:16:43 17:21:19 27° 43° (NE) 17:25:53 437.095 MHz 1200 baud AX-25 AFSK
PCSat 02 Oct 17:41:56 17:47:04 40° 49° (NE) 17:52:09 145.825 MHz
Hamsat 02 Oct 18:08:42 18:13:02 80° 257° (WSW) 18:17:21 145.90 MHz
KITSAT 1 02 Oct 18:19:27 18:27:26 61° 310° (NW) 18:35:28 435.175 FM
OPAL 02 Oct 18:35:03 18:40:09 69° 290° (WNW) 18:45:08 ?
AO-7 02 Oct 18:40:08 18:43:55 14° 275° (W) 18:47:44 29.400 - 29.500 MHz
JAS-2 02 Oct 18:58:50 19:03:15 28° 267° (W) 19:07:54 435.800 - 435.900 CW/SSB, 435.910 FM
Sapphire 02 Oct 18:59:47 19:05:08 61° 243° (WSW) 19:10:28 437.095 MHz 1200 baud AX-25 AFSK
SO-67 02 Oct 19:12:28 19:15:54 73° 76° (ENE) 19:19:21 435.3500 MHz FM
HO-68 02 Oct 19:18:33 19:23:31 21° 52° (NE) 19:28:31 435.675 MHz FM
PCSat 02 Oct 19:25:31 19:30:25 35° 248° (WSW) 19:35:18 145.825 MHz
SO-50 02 Oct 19:27:14 19:31:42 69° 123° (ESE) 19:36:18 436.795 FM
STRAND 1 02 Oct 19:39:11 19:44:13 50° 100° (E) 19:49:12 ?
UOSAT-12 02 Oct 19:48:59 19:50:37 12° 107° (ESE) 19:52:16 437.025 FM, 437.400 FM
AO-40 02 Oct 19:50:08 01:24:03 38° 183° (S) 08:16:41 Beacon 2401.320
OPAL 02 Oct 20:16:33 20:18:05 11° 309° (NW) 20:19:37 ?
KITSAT 1 02 Oct 20:18:29 20:24:39 23° 335° (NNW) 20:30:49 435.175 FM
Oscar 11 02 Oct 20:34:25 20:36:46 14° 61° (ENE) 20:39:06 145.825 FM, Beacon 2401.500 USB
Saudisat 1A 02 Oct 20:56:29 20:59:29 18° 34° (NE) 21:02:28 436.775 MHz
HO-68 02 Oct 21:03:09 21:10:18 88° 72° (ENE) 21:17:31 435.675 MHz FM
FUNcube-1 02 Oct 21:03:30 21:05:43 14° 59° (ENE) 21:07:57 145.950 - 145.970 MHz USB
UKube-1 02 Oct 21:03:43 21:07:39 35° 68° (ENE) 21:11:36 145.840 MHz, 145.915 MHz
SO-50 02 Oct 21:09:10 21:12:44 22° 323° (NW) 21:16:22 436.795 FM
STRAND 1 02 Oct 21:19:01 21:23:06 24° 298° (WNW) 21:27:10 ?
UOSAT-12 02 Oct 21:25:22 21:30:00 88° 125° (SE) 21:34:46 437.025 FM, 437.400 FM
ISS 02 Oct 21:29:26 21:32:04 22° 137° (SE) 21:34:43 145.800 FM
ZACube-1 02 Oct 21:46:49 21:50:54 33° 68° (ENE) 21:55:03 437.345 MHz
Oscar 11 02 Oct 22:08:05 22:12:25 68° 258° (WSW) 22:16:47 145.825 FM, Beacon 2401.500 USB
KITSAT 1 02 Oct 22:18:33 22:23:33 17° 6° (N) 22:28:33 435.175 FM
Saudisat 1A 02 Oct 22:35:14 22:39:41 90° 103° (ESE) 22:44:06 436.775 MHz
FUNcube-1 02 Oct 22:36:52 22:41:26 81° 257° (WSW) 22:46:06 145.950 - 145.970 MHz USB
UKube-1 02 Oct 22:40:22 22:43:55 24° 265° (W) 22:47:29 145.840 MHz, 145.915 MHz
HO-68 02 Oct 22:54:12 22:58:54 18° 271° (W) 23:03:38 435.675 MHz FM
ISS 02 Oct 23:05:13 23:08:31 63° 335° (NNW) 23:11:50 145.800 FM
UOSAT-12 02 Oct 23:07:25 23:10:49 19° 326° (NW) 23:14:14 437.025 FM, 437.400 FM
ZACube-1 02 Oct 23:23:21 23:27:18 28° 266° (W) 23:31:19 437.345 MHz
KITSAT 1 03 Oct 00:14:57 00:22:00 31° 35° (NE) 00:29:01 435.175 FM
Saudisat 1A 03 Oct 00:17:17 00:18:33 11° 252° (WSW) 00:19:49 436.775 MHz
ISS 03 Oct 00:42:42 00:45:38 28° 354° (N) 00:48:33 145.800 FM
Oscar 19 03 Oct 01:15:58 01:17:52 12° 87° (E) 01:19:46 437.125 CW, 437.150 USB
AO-Echo 03 Oct 01:50:22 01:52:47 13° 89° (E) 01:55:14 ?
Oscar 16 03 Oct 01:55:24 01:59:52 29° 95° (E) 02:04:18 437.025 USB, Beacon 2401.1428
RS-15 03 Oct 02:03:05 02:13:34 53° 113° (ESE) 02:23:58 29.354 - 29.394 USB, Beacon 29.352 USB
AO-27 03 Oct 02:09:57 02:13:19 17° 90° (E) 02:16:41 436.795 MHz FM
KITSAT 1 03 Oct 02:10:15 02:18:22 85° 239° (WSW) 02:26:26 435.175 FM
JAS-1B 03 Oct 02:16:44 02:21:38 28° 95° (E) 02:26:51 435.800 - 435.900 CW/SSB
SO-50 03 Oct 02:16:48 02:20:33 22° 37° (NE) 02:24:20 436.795 FM
ISS 03 Oct 02:19:49 02:22:55 35° 15° (NNE) 02:26:00 145.800 FM
Gurwin Techsat 1B 03 Oct 02:45:45 02:49:25 19° 90° (E) 02:53:03 435.225 FM
Oscar 19 03 Oct 02:52:45 02:57:56 89° 285° (WNW) 03:03:04 437.125 CW, 437.150 USB
ITAMSAT 1 03 Oct 03:09:04 03:14:14 56° 101° (E) 03:19:21 435.822 SSB
Uribyol 2 03 Oct 03:09:25 03:14:36 60° 101° (ESE) 03:19:45 436.500 FM
TMSAT-1 03 Oct 03:12:38 03:16:54 24° 93° (E) 03:21:08 436.925 FM
AO-Echo 03 Oct 03:27:04 03:32:08 82° 285° (WNW) 03:37:19 ?
Oscar 16 03 Oct 03:34:32 03:39:19 39° 293° (WNW) 03:44:02 437.025 USB, Beacon 2401.1428
AO-27 03 Oct 03:48:07 03:53:20 68° 288° (WNW) 03:58:31 436.795 MHz FM
ISS 03 Oct 03:56:28 03:59:45 60° 214° (SSW) 04:03:02 145.800 FM
SO-50 03 Oct 03:56:48 04:01:37 75° 237° (WSW) 04:06:29 436.795 FM
JAS-1B 03 Oct 04:07:11 04:12:32 43° 293° (WNW) 04:18:14 435.800 - 435.900 CW/SSB
KITSAT 1 03 Oct 04:07:20 04:12:36 19° 259° (WSW) 04:17:51 435.175 FM
UOSAT-12 03 Oct 04:13:26 04:17:22 25° 39° (NE) 04:21:15 437.025 FM, 437.400 FM
OPAL 03 Oct 04:13:43 04:18:31 39° 65° (ENE) 04:23:21 ?
RS-15 03 Oct 04:15:16 04:25:57 55° 318° (NW) 04:36:42 29.354 - 29.394 USB, Beacon 29.352 USB
Gurwin Techsat 1B 03 Oct 04:24:34 04:29:50 64° 288° (WNW) 04:35:04 435.225 FM
Oscar 19 03 Oct 04:33:55 04:36:32 14° 303° (WNW) 04:39:08 437.125 CW, 437.150 USB
AO-7 03 Oct 04:40:38 04:48:09 36° 97° (E) 04:55:37 29.400 - 29.500 MHz
MaSat-1 03 Oct 04:48:30 04:52:28 26° 108° (ESE) 04:56:16 437.345 MHz
ITAMSAT 1 03 Oct 04:49:22 04:53:21 23° 299° (WNW) 04:57:19 435.822 SSB
Uribyol 2 03 Oct 04:49:47 04:53:39 21° 299° (WNW) 04:57:30 436.500 FM
Uosat F 03 Oct 04:50:45 04:55:12 31° 96° (E) 04:59:37 435.120 FM
TMSAT-1 03 Oct 04:51:58 04:57:05 49° 291° (WNW) 05:02:10 436.925 FM
AO-Echo 03 Oct 05:08:01 05:10:09 13° 303° (WNW) 05:12:18 ?
STRAND 1 03 Oct 05:21:25 05:23:57 14° 56° (ENE) 05:26:29 ?
AO-27 03 Oct 05:30:30 05:31:53 11° 307° (NW) 05:33:15 436.795 MHz FM
SO-50 03 Oct 05:41:07 05:41:22 10° 254° (WSW) 05:41:36 436.795 FM
OPAL 03 Oct 05:52:53 05:57:27 31° 262° (W) 06:02:03 ?
UOSAT-12 03 Oct 05:53:13 05:57:53 60° 239° (WSW) 06:02:28 437.025 FM, 437.400 FM
Hamsat 03 Oct 05:53:33 05:56:03 15° 90° (E) 05:58:32 145.90 MHz
JAS-2 03 Oct 06:02:34 06:08:46 36° 96° (E) 06:15:31 435.800 - 435.900 CW/SSB, 435.910 FM
Gurwin Techsat 1B 03 Oct 06:07:49 06:08:46 10° 307° (NW) 06:09:43 435.225 FM
MaSat-1 03 Oct 06:24:11 06:28:44 42° 304° (WNW) 06:32:59 437.345 MHz
Uosat F 03 Oct 06:29:25 06:34:01 36° 293° (WNW) 06:38:35 435.120 FM
RS-15 03 Oct 06:32:20 06:41:26 29° 350° (N) 06:50:40 29.354 - 29.394 USB, Beacon 29.352 USB
AO-7 03 Oct 06:33:13 06:41:15 57° 297° (WNW) 06:49:17 29.400 - 29.500 MHz
STRAND 1 03 Oct 06:57:17 07:02:23 88° 75° (ENE) 07:07:32 ?
Hamsat 03 Oct 07:28:15 07:32:20 51° 288° (WNW) 07:36:23 145.90 MHz
JAS-2 03 Oct 07:47:31 07:53:53 49° 292° (WNW) 08:00:56 435.800 - 435.900 CW/SSB, 435.910 FM
Sapphire 03 Oct 08:04:12 08:06:11 12° 102° (ESE) 08:08:11 437.095 MHz 1200 baud AX-25 AFSK
SO-67 03 Oct 08:06:41 08:10:08 64° 101° (E) 08:13:33 435.3500 MHz FM
PCSat 03 Oct 08:27:09 08:31:10 22° 107° (ESE) 08:35:13 145.825 MHz
AO-7 03 Oct 08:27:54 08:32:19 16° 319° (NW) 08:36:44 29.400 - 29.500 MHz
HO-68 03 Oct 08:30:48 08:34:20 14° 86° (E) 08:37:51 435.675 MHz FM
STRAND 1 03 Oct 08:40:20 08:42:17 12° 273° (W) 08:44:15 ?
RS-15 03 Oct 08:48:12 08:58:02 35° 25° (NNE) 09:08:07 29.354 - 29.394 USB, Beacon 29.352 USB
JAS-2 03 Oct 09:36:34 09:37:37 10° 311° (NW) 09:38:42 435.800 - 435.900 CW/SSB, 435.910 FM
Sapphire 03 Oct 09:43:19 09:48:43 81° 120° (ESE) 09:54:10 437.095 MHz 1200 baud AX-25 AFSK
